DUCHIFAT-3 (44854 NORAD) Tracking and Keplerian Element Data

This shows tracking and keplerian element data for the satellite.

Feedback or suggestion? Click here.




ElementValue
Catalog44854
NameDUCHIFAT-3
Epoch Orbit16150
Epoch Day325.19155594
Epoch Year2022
RAAN250.3944
Inclination36.9641
Eccentricity0.0006693
Argument of Perigee43.3294
Mean Anonmoly68.4857
Mean Motion15.0236971
Decay Rate4.619E-05
L11 44854U 19089C 22325.19155594 .00004619 00000+0 34804-3 0 9996
L22 44854 36.9641 250.3944 0006693 43.3294 68.4857 15.02369710161507



Live tracking and technical data element details for DUCHIFAT-3 (NORAD 44854). DUCHIFAT-3 can be tracked NOW for your location showing map with azimuth and elevation plus other details from your city location.







IsCatalogInMostPopularTable: catalog: 44854, numindb: 248
Update: records affected: 1



GetName: 44854 DUCHIFAT-3

Hit Count: updated at: Mon, 28 Nov 2022 04:58:28 GMT